Location: A�t �Alizem
(31.2076°N, 8.7872°W)
Time: 06:33:08
(UTC+00:00)

Cosmos 1538 Rocket - Pass Details

Date: 27 November 2020
Orbit: 753 x 791 km, 74.0° (Epoch: 25 January)

Event Time Altitude Azimuth Distance (km) Brightness Sun altitude
Rises 18:28:18 0° 187° (S) 3,251 7.6 -11.9°
Reaches altitude 10° 18:30:41 10° 184° (S) 2,331 6.8 -12.4°
Maximum altitude 18:35:56 65° 104° (ESE) 866 4.0 -13.5°
Drops below altitude 10° 18:41:14 10° 23° (NNE) 2,358 6.2 -14.6°
Enters shadow 18:41:59 - 22° (NNE) 2,642 6.4 -14.7°
